Estación de El Carmen

Ultimos registro cada 15 minutos 38
Estación Fecha / Hora Temperatura Humedad Lluvia Velocidad Dirección Radiación Presion
38 El Carmen 08-05-2026 09:15 8,4 89,9 0 0 132 49,4 979,2
37 El Carmen 08-05-2026 09:00 6,5 91,9 0 0 135 124,4 979,7
36 El Carmen 08-05-2026 08:45 6,1 94,7 0 0 143 111,9 979,8
35 El Carmen 08-05-2026 08:30 4,9 95,5 0 0 133 19,4 979,4
34 El Carmen 08-05-2026 08:15 4 96,2 0 0 104 83,1 979,2
33 El Carmen 08-05-2026 08:00 2,1 95,8 0 0 93 16,9 979,2
32 El Carmen 08-05-2026 07:45 2,6 95,5 0 0 91 6,9 979,4
31 El Carmen 08-05-2026 07:30 3,2 95,7 0 0 102 3,1 979
30 El Carmen 08-05-2026 07:15 1,9 95,2 0 0 102 0,6 979,3
29 El Carmen 08-05-2026 07:00 2,9 95,1 0 0 104 0,6 979,5
28 El Carmen 08-05-2026 06:45 3,7 94,9 0 0 115 0,6 979,8
27 El Carmen 08-05-2026 06:30 3,7 94,7 0 0 118 0,6 980
26 El Carmen 08-05-2026 06:15 4,1 94,7 0 0 105 0,6 980,3
25 El Carmen 08-05-2026 06:00 4 94,5 0 0 107 0,6 980,3
24 El Carmen 08-05-2026 05:45 4 94 0 0 110 0,6 980
23 El Carmen 08-05-2026 05:30 4,4 93,8 0 0 110 0,6 980,1
22 El Carmen 08-05-2026 05:15 4,5 93,6 0 0 112 0,6 979,9
21 El Carmen 08-05-2026 05:00 4,4 93,6 0 0 119 0,6 979,7
20 El Carmen 08-05-2026 04:45 4,5 93,6 0 0 119 0,6 979,8
19 El Carmen 08-05-2026 04:30 4,7 93 0 0 126 0,6 979,6
18 El Carmen 08-05-2026 04:15 5,1 92,4 0 0,5 142 0,6 979,8
17 El Carmen 08-05-2026 04:00 5,1 93 0 0,5 124 0,6 980
16 El Carmen 08-05-2026 03:45 5 93,1 0 0 129 0,6 980,1
15 El Carmen 08-05-2026 03:30 5,2 93,1 0 0 131 0,6 980,3
14 El Carmen 08-05-2026 03:15 4,8 93,9 0 0 121 0,6 980,5
13 El Carmen 08-05-2026 03:00 4,9 93,7 0 0 119 0,6 980,7
12 El Carmen 08-05-2026 02:45 4,9 93,5 0 0 111 0,6 980,4
11 El Carmen 08-05-2026 02:30 5 93,5 0 0 110 0,6 980,7
10 El Carmen 08-05-2026 02:15 5,1 93,4 0 0 111 0,6 980,7
9 El Carmen 08-05-2026 02:00 5,1 93,1 0 0 115 0,6 980,9
8 El Carmen 08-05-2026 01:45 5,2 92,5 0 0 121 0,6 981
7 El Carmen 08-05-2026 01:30 5,9 92,6 0 0 121 0,6 981,4
6 El Carmen 08-05-2026 01:15 5,5 92,1 0 0 121 0,6 981,5
5 El Carmen 08-05-2026 01:00 5,7 91,4 0 0 121 0,6 981,8
4 El Carmen 08-05-2026 00:45 6,5 90,2 0 0 125 0,6 981,6
3 El Carmen 08-05-2026 00:30 6,6 89,9 0 0 128 0,6 981,4
2 El Carmen 08-05-2026 00:15 7,1 88,7 0 0 128 0,6 982,1
1 El Carmen 08-05-2026 00:00 7,9 87,7 0 0 135 0,6 981,7